{"data":{"norad_id":56404,"intl_designator":"2023-061AG","name":"STARLINK-6287","alt_names":[],"object_type":"PAYLOAD","status":"ACTIVE","operator":null,"country":"US","launch_date":"2023-05-04","launch_site_code":"AFETR","launch_vehicle":null,"mission":null,"orbit_class":"UNKNOWN","rcs_meters":null,"size_class":null,"mass_kg":null,"dimensions":null,"purposes":["comms"],"wikipedia_slug":null,"has_3d_model":false,"image_url":null,"decayed_at":null,"tle_current":{"epoch":"2026-05-25T04:49:49.060992Z","epoch_age_seconds":53655,"freshness":"FRESH","line1":"1 56404U 23061AG  26145.20126228 -.00000081  00000+0  65680-5 0  9991","line2":"2 56404  43.0020 115.1410 0001334 267.9572  92.1127 15.27573551168572","mean_motion":15.27573551,"eccentricity":0.0001334,"inclination_deg":43.002,"raan_deg":115.141,"arg_perigee_deg":267.9572,"mean_anomaly_deg":92.1127,"bstar":6.568e-6,"rev_number":16857,"period_min":94.267146682222,"perigee_km":482.15312193235,"apogee_km":483.98369153486,"semimajor_km":6861.2054067336,"source":"CELESTRAK","updated_at":"2026-05-25T13:38:18.015910Z"}}}